Погода в Петрокрепости

Погода в Петрокрепости : погода сейчас, прогноз погоды и архив. Всё, что Вы хотите узнать о погоде в Петрокрепости!

Хотите узнать прогноз погоды в Петрокрепости? Тогда Вам сюда: Погода в Петрокрепости

Поиск расширенной информации на нашем сайте:

Другие новости

Новости СМИ2

Главная страница сайта

Новости сайта

02.10.2013

Напоминаем, что на нашем новом сайте вы можете получить высокодетализированные прогнозы погоды по пунктам России, СНГ и мира (включающие важные для авиации метеовеличины, такие как направление и скорость ветра, видимость, явления погоды, количество и форма облачности, нижняя и верхняя граница облачности), а также ознакомиться с разнообразными материалами по авиационной метеорологии и подборкой полезных ссылок на эту тему.

Сайт Метеоцентр.Азия посвящён разработке технологий оптимизации авиаметеорологического обслуживания, включая проектирование и перспективное создание нескольких автоматизированных авиаметеорологических систем:
- система выпуска высокодетальных прогностических карт явлений погоды для нижнего воздушного пространства по России и ближнему зарубежью;
- система верификации прогнозов TAF (выпускаемых синоптиками официальных АМСГ РФ и ближнего зарубежья) и AUTOTAF (выпускаемых сайтом Метеоцентр.Азия) - выявление ошибок, онлайн-сопоставление с фактической погодой METAR, автоматическое внесение коррективов в прогнозы при резком отклонении фактической погоды от прогноза, подсчёт оправдываемости прогнозов по элементам и в целом;
- система обработки, анализа и отображения авиаметеорологической информации для применения провайдерами метеорологической информации.


Погода в Петрокрепости - сегодня

Время (UTC), дата Ветер
(°,м/с) 
Видим.   Явления Облачность Т
(°С)
Тd
(°С)
f(%) Тe
(°С)
Pmin
(гПа)
dP
(гПа)
Po
(мм)
O2
(г/м3)
Тmin Tmax R s Состояние
почвы
09 22.03.17 200 (Ю) 20000 м  {ливн. осадки}  10/10 660 м 
[Sc]
+4.3 +1.5 82 +3  1006.8  0.9  754  299           
12 22.03.17 210 (ЮЗ) 2{10}  20000 м  {ливн. осадки}  9/9 720 м 
[Sc]
+5.9 +0.8 70 +6  1007.2  0.4  754  297           
15 22.03.17 230 (ЮЗ) 4{11}  20000 м    9/9 800 м 
[Sc]
+6.1 -2.4 54 +5  1008  0.8  755  298      0.0     
18 22.03.17 230 (ЮЗ) 20000 м    10/10 840 м 
[Sc]
+4.6 -0.8 68 +3  1009.4  1.5  756  300    +7.5  0.0     
21 22.03.17 230 (ЮЗ) 20000 м    8/0 средняя 
[Ac trans]
+3.8 -0.2 75 +3  1010.1  1.5  756  300           
00 23.03.17 230 (ЮЗ) 20000 м  {ливн. осадки}  9/0 средняя 
[Ac trans]
+3.4 +0.6 82 +2  1011.1  757  301           
03 23.03.17 220 (ЮЗ) 20000 м    10/10 600 м 
[Sc]
+2.6 +0.6 87 +1  1012  0.8  758  302  +2.4    0.0     
06 23.03.17 220 (ЮЗ) 20000 м    9/9 700 м 
[Sc]
+2.8 +0.5 85 +1  1013.2  1.3  758  302  +2.4    0.0     
09 23.03.17 230 (ЮЗ) 20000 м    10/10 660 м 
[Sc]
+3.3 +1 85 +3  1014.5  1.3  759  302           
12 23.03.17 260 (З) 5-10{12}  20000 м    5/5 1000 м 
[Cu med, cong]
+5.9 -1.9 57 +4  1015.7  1.2  760  300           
15 23.03.17 260 (З) 5{13}  20000 м    1/1 1000 м 
[Cu hum]
+4.4 -3.1 58 +2  1017.2  1.5  761  302           
18 23.03.17 230 (ЮЗ) 2{10}  20000 м    ясно 
+1.6 -4 66 +1  1018.1  0.9  762  306    +6.9       
21 23.03.17 220 (ЮЗ) 20000 м    ясно 
-0.1 -5.1 69 -1  1017.3  -0.9  761  307           
00 24.03.17 220 (ЮЗ) 20000 м    ясно 
-0.9 -5.1 73 -2  1016.6  -0.6  761  308           
03 24.03.17 220 (ЮЗ) 20000 м    ясно 
-1.8 -3.6 87 -3  1016.3  -0.4  761  309  -1.8         
06 24.03.17 260 (З) 20000 м    ясно 
+0.5 -3.4 75 -1  1016.1  -0.2  761  306  -2         
09 24.03.17 270 (З) 20000 м    3/0 средняя 
[Ac trans]
+3.5 -5.6 51 +2  1016.3  0.2  761  303           
12 24.03.17 260 (З) 5{10}  20000 м    1/1 1000 м 
[Cu hum]
+3.3 -6.2 50 +1  1016.7  0.4  761  304           
15 24.03.17 270 (З) 3{10}  20000 м    3/0 верхняя 
[Ci]
+2.3 -7.1 50 +1  1016.8  0.1  761  305           
18 24.03.17 280 (З) 2{10}  20000 м    ясно 
-0.6 -5.6 69 -1  1017.4  0.6  762  308    +4.7       
21 24.03.17 280 (З) 20000 м    ясно 
-1.9 -6.8 69 -1  1017.9  0.5  762  310           
00 25.03.17 240 (ЮЗ) 20000 м    ясно 
-3.2 -6.8 76 -3  1017.7  -0.3  762  311           
03 25.03.17 220 (ЮЗ) 20000 м    ясно 
-3.9 -4.8 93 -3  1016.7  -1  761  312  -4.1         
06 25.03.17 230 (ЮЗ) 20000 м    4/0 верхняя 
[Ci]
-1.5 -3 89 -2  1015.6  -1.1  760  308  -4.1         
09 25.03.17 240 (ЮЗ) 20000 м    10/4 1000 м средняя, верхняя 
[Cu med, cong|Ac trans|Cs]
+1.3 -2.7 75 +1  1014.9  -0.6  760  305           
Время (UTC), дата Ветер
(°,м/с) 
Видим.   Явления Облачность Т
(°С)
Тd
(°С)
f(%) Тe
(°С)
Pmin
(гПа)
dP
(гПа)
Po
(мм)
O2
(г/м3)
Тmin Tmax R s Состояние
почвы

Для получения пояснительной информации подведите курсор к названию столбца.

ПОГОДА в Петрокрепости - архив

Всё, что Вы хотите узнать о погоде в Петрокрепости - удобно и подробно!

Выберите нужную дату (начиная с 1 января 2015* года) и нажмите кнопку "Найти".
Будут отображены архивные сводки погоды по пункту Петрокрепость, начиная с указанной даты.


Отображать данные в формате CSV (для использования в таблицах Excel)


Внимание! Наш архив погоды предназначен исключительно для личного некоммерческого использования в познавательных целях. Если Вам необходимы официальные справки о состоянии погоды (для производственных, юридических, коммерческих и т.п. целей), обращайтесь в органы Росгидромета.

*Примечание: данная дата относится к архиву по метеостанциям СССР (Россия, СНГ, Балтия).
Архив по метеостанциям Зарубежной Европы и Азии (кроме Китая) хранится 10 дней, по другим регионам земного шара (Китай, Африка, Америка, Австралия, Океания) - 1 день.

Петрокрепость - район местоположения метеостанции


Название, широта, долгота, высота метеостанции:
Петрокрепость 59.9°ш. 31°д. 17 м над ур. моря [Российская Федерация]

Дополнительная информация

В oтличие oт бoльшинства пoгoдных сайтoв мы публикуем пoдрoбную метеoинфoрмацию в детальнoм прoфессиoнальнoм фoрмате.

Характеристики температуры и влажнoсти вoздуха измеряются на высoте 2 м в тени вдали oт зданий и деревьев.
Скoрoсть ветра измеряется на высoте 10 м (на урoвне рoста челoвека скoрoсть ветра ниже в 1.5-2 раза). Если метеoстанция нахoдится в гoрoде или в лесу, тo скoрoсть ветра занижена на 2-4 м/с пo сравнению с oткрытым местoм. Скoрoсть ветра над акватoриями крупных рек и oзёр, а также на вершинах хoлмoв на 2-5 м/с выше, чем в oбычных услoвиях.
Атмoсфернoе давление в разных тoчках местнoсти мoжет значительнo oтличаться oт давления на метеoстанции, в зависимoсти oт услoвий рельефа (при пoдъёме на 10 м давление пoнижается примернo на 1 мм рт.ст.).